This demonstration page uses our WeatherBlox Daily Observations layout. Learn more.

Left ArrowRight Arrow

39.95238, -75.16362

Hourly Observations for November 30, 2022

Temp ( °F °C ) Dew Point ( °F °C ) Humidity (%) Winds ( mph kmh ) Pressure ( in mb ) Visibility ( mi km ) Precip ( " mm )
12:54 am 00:54 Cloudy 39 3.9 33 0.6 79 79 E 6 9 30.20 1023 10 16 0.00 0.00
1:54 am 01:54 Cloudy 40 4.4 33 0.6 76 76 E 3 6 30.19 1022 10 16 0.00 0.00
2:54 am 02:54 Cloudy 41 5 35 1.7 79 79 E 5 7 30.17 1022 10 16 0.00 0.00
3:54 am 03:54 Cloudy 41 5 35 1.7 79 79 ENE 3 6 30.13 1020 10 16 0.00 0.00
4:54 am 04:54 Cloudy 43 6.1 36 2.2 76 76 E 6 9 30.11 1020 10 16 0.00 0.00
5:54 am 05:54 Cloudy 43 6.1 37 2.8 79 79 NE 3 6 30.09 1019 10 16 0.00 0.00
6:54 am 06:54 Cloudy 44 6.7 38 3.3 79 79 NE 5 7 30.05 1018 10 16 0.00 0.00
7:54 am 07:54 Cloudy 47 8.3 42 5.6 83 83 E 6 9 30.02 1017 10 16 0.00 0.00
8:39 am 08:39 Cloudy with Light Rain 50 10 44 6.7 80 80 Calm 30.00 1016 6 10 0.01 0.13
8:46 am 08:46 Cloudy with Light Rain 50 10 45 7.2 83 83 VRB 5 7 29.99 1016 7 11 0.01 0.13
8:54 am 08:54 Cloudy with Light Rain 50 10 45 7.2 83 83 WSW 5 7 29.99 1016 6 10 0.01 0.13
9:08 am 09:08 Cloudy with Light Rain 50 10 46 7.8 86 86 SW 5 7 29.99 1016 4 6 0.01 0.25
9:15 am 09:15 Cloudy with Light Rain 50 10 46 7.8 86 86 VRB 7 11 29.98 1015 3 4 0.02 0.51
9:39 am 09:39 Cloudy with Rain 50 10 48 8.9 93 93 VRB 3 6 29.97 1015 3 4 0.07 1.78
9:45 am 09:45 Cloudy with Rain 50 10 48 8.9 93 93 SW 5 7 29.96 1015 3 5 0.08 2.03
9:54 am 09:54 Cloudy with Rain 49 9.4 48 8.9 97 97 Calm 29.95 1014 3 5 0.11 2.79
10:16 am 10:16 Cloudy with Rain 50 10 49 9.4 96 96 W 7 11 29.94 1014 3 5 0.03 0.76
10:27 am 10:27 Cloudy with Light Rain 50 10 48 8.9 93 93 SSW 7 11 29.93 1014 4 6 0.04 1.02
10:54 am 10:54 Cloudy with Light Rain 55 12.8 53 11.7 93 93 SSW 16 26 29.89 1012 4 6 0.07 1.78
11:30 am 11:30 Cloudy with Light Rain 55 12.8 53 11.7 93 93 S 15 24 29.84 1011 5 8 0.05 1.27
11:37 am 11:37 Cloudy with Light Rain 55 12.8 53 11.7 93 93 S 15 24 29.83 1010 7 11 0.05 1.27
11:54 am 11:54 Cloudy with Light Rain 55 12.8 53 11.7 93 93 S 14 22 29.81 1009 7 11 0.06 1.52
12:24 pm 12:24 Cloudy with Rain 55 12.8 53 11.7 93 93 SSW 13 20 29.80 1009 4 6 0.02 0.51
12:54 pm 12:54 Cloudy with Light Rain 55 12.8 53 11.7 93 93 SSW 15 24 29.78 1008 4 6 0.10 2.54
1:16 pm 13:16 Cloudy with Light Rain 56 13.3 53 11.7 90 90 SSW 17 28 29.77 1008 4 6 0.03 0.76
1:47 pm 13:47 Cloudy with Light Rain 56 13.3 53 11.7 90 90 SSW 14 22 29.75 1007 5 8 0.07 1.78
1:54 pm 13:54 Cloudy with Light Rain 56 13.3 53 11.7 90 90 SSW 17 28 29.74 1007 7 11 0.07 1.78
2:06 pm 14:06 Cloudy with Light Rain 56 13.3 53 11.7 90 90 SSW 20 31 29.74 1007 3 5 0.01 0.13
2:26 pm 14:26 Cloudy with Light Rain 56 13.3 54 12.2 93 93 SSW 16 26 29.74 1007 10 16 0.02 0.51
2:50 pm 14:50 Cloudy with Light Rain 57 14 54 12 88 88 SSW 21 33 29.72 1006 5 8 0.03 0.76
2:54 pm 14:54 Cloudy with Light Rain 57 13.9 54 12.2 89 89 SSW 21 33 29.72 1006 5 8 0.03 0.76
3:28 pm 15:28 Cloudy 57 13.9 54 12.2 89 89 SSW 15 24 29.73 1007 10 16 0.01 0.25
3:54 pm 15:54 Cloudy 57 13.9 54 12.2 89 89 SW 17 28 29.73 1007 10 16 0.01 0.25
4:43 pm 16:43 Mostly Cloudy 57 13.9 54 12.2 89 89 SW 21 33 29.75 1007 10 16 0.00 0.00
4:54 pm 16:54 Mostly Cloudy 57 13.9 54 12.2 89 89 WSW 22 35 29.77 1008 10 16 0.00 0.00
5:42 pm 17:42 Mostly Cloudy 55 12.8 42 5.6 62 62 W 17 28 29.81 1010 10 16 0.01 0.13
5:54 pm 17:54 Mostly Cloudy 54 12.2 42 5.6 64 64 W 16 26 29.81 1009 10 16 0.01 0.13
6:54 pm 18:54 Cloudy 53 11.7 38 3.3 56 56 WNW 18 30 29.84 1011 10 16 0.01 0.13
7:54 pm 19:54 Mostly Cloudy 50 10 32 0 50 50 WNW 10 17 29.89 1012 10 16 0.00 0.00
8:54 pm 20:54 Mostly Clear 47 8.3 26 -3.3 44 44 WNW 17 28 29.91 1013 10 16 0.00 0.00
9:54 pm 21:54 Mostly Clear 44 6.7 26 -3.3 49 49 W 12 19 29.94 1014 10 16 0.00 0.00
10:54 pm 22:54 Mostly Clear 43 6.1 23 -5 45 45 W 22 35 29.96 1015 10 16 0.00 0.00
11:54 pm 23:54 Clear 41 5 19 -7.2 41 41 WNW 20 31 30.00 1016 10 16 0.00 0.00

Powered by AerisWeather